Lexington Weather

Lexington, Massachusetts, USA

44°F
5/12/2021 4:22am 
  • Lexington Conditions: Clear
  • Temperature: 44.4°F / 6.9°CColder 0.7°F than last hour.
  • Dew Point: 32.5°FIncreased 0.9°Fsince last hour.
  • Relative Humidity: 63%Increased 4.0% since last hour.
  • Wind: Wind from WNW WNW 2 mph, 10-min avg: 1 mph, gust: 2 mph
  • Barometer: 29.92 in Steady
  • Visibility: 10 miles
  • Rain Today: 0.00 in
  •   

Regional Weather Roundup
for Boston / Norton, MA

        
000
ASUS41 KBOX 082204
RWRBOX

REGIONAL WEATHER ROUNDUP
NATIONAL WEATHER SERVICE BOSTON/NORTON MA
600 PM EDT SAT MAY 08 2021

NOTE:  "FAIR" INDICATES FEW OR NO CLOUDS BELOW 12,000 FEET WITH NO 
SIGNIFICANT WEATHER AND/OR OBSTRUCTIONS TO VISIBILITY.

MAZALL-082300-
EASTERN MASSACHUSETTS
  
CITY           SKY/WX    TMP DP  RH WIND       PRES   REMARKS
BOSTON         CLOUDY    52  36  54 SE8       29.84S                  
BEVERLY        CLOUDY    51  37  58 S6        29.83R                  
LAWRENCE       CLOUDY    54  37  52 VRB5      29.83S                  
BEDFORD        CLOUDY    54  37  52 SE10      29.82R                  
BLUE HILL        N/A     51  35  54 E3        29.82R                  
NORWOOD        CLOUDY    56  35  45 CALM      29.84R                  
MARSHFIELD     PTSUNNY   52  36  54 VRB3      29.85R                  
PLYMOUTH       CLOUDY    50  34  54 E3        29.84S                  
TAUNTON        PTSUNNY   54  34  46 CALM      29.84R                  
NEW BEDFORD    PTSUNNY   54  35  48 CALM      29.85R                  
$$

MAZALL-082300-
CAPE COD AND THE ISLANDS
  
CITY           SKY/WX    TMP DP  RH WIND       PRES   REMARKS
FALMOUTH       MOSUNNY   50  34  53 NE6       29.85R                  
HYANNIS        CLOUDY    50  35  56 CALM      29.84R                  
CHATHAM        CLOUDY    50  35  56 CALM      29.86R                  
PROVINCETOWN   CLOUDY    48  38  68 SW7       29.85R                  
NANTUCKET      CLOUDY    50  41  71 VRB5      29.86R                  
MARTHAS VNYRD  PTSUNNY   53  37  54 N6        29.86R                  
$$
 
MAZALL-082300-
CENTRAL AND WESTERN MASSACHUSETTS
  
CITY           SKY/WX    TMP DP  RH WIND       PRES   REMARKS
WORCESTER      CLOUDY    53  29  39 CALM      29.83R                  
FITCHBURG      CLOUDY    56  32  40 S3        29.82R                  
ORANGE         CLOUDY    57  28  33 W6        29.82R                  
SPRINGFIELD    CLOUDY    56  31  38 SW5       29.82R                  
WESTFIELD      CLOUDY    57  33  40 VRB6      29.83R                  
NORTH ADAMS    CLOUDY    51  46  83 SW6       29.85R                  
PITTSFIELD     CLOUDY    50  37  61 W8        29.84R                  
$$
 
RIZALL-082300-
RHODE ISLAND
  
CITY           SKY/WX    TMP DP  RH WIND       PRES   REMARKS
PROVIDENCE     CLOUDY    51  42  71 S12       29.86R                  
NEWPORT        CLOUDY    48  39  71 S8        29.87R                  
BLOCK ISLAND   CLOUDY    50  38  63 S9        29.88R                  
SMITHFIELD       N/A     53  33  46 S5        29.85R                  
WESTERLY       CLOUDY    50  41  71 S7        29.87R                  
$$
 
CTZALL-082300-
CONNECTICUT
  
CITY           SKY/WX    TMP DP  RH WIND       PRES   REMARKS
BRADLEY INTL   CLOUDY    56  37  49 SW9       29.84R                  
HARTFORD       CLOUDY    54  39  57 SW7       29.85R                  
BRIDGEPORT     CLOUDY    54  36  50 SW9       29.88R                  
DANBURY        LGT RAIN  50  42  74 N5        29.89R                  
GROTON         LGT RAIN  51  39  63 W10G20    29.86R                  
NEW HAVEN      CLOUDY    53  38  56 SW8       29.88R                  
CHESTER        NOT AVBL                                               
MERIDEN        LGT RAIN  51  40  65 VRB3      29.88R                  
WILLIMANTIC    LGT RAIN  55  34  45 VRB3      29.85R                  
OXFORD         LGT RAIN  47  44  90 W3        29.89R                  
$$

MEZ002-015-021-024-NHZ003-005-008-011-012-014-VTZ005-008-082300-
NORTHERN NEW ENGLAND
  
CITY           SKY/WX    TMP DP  RH WIND       PRES   REMARKS
PORTLAND ME    CLOUDY    53  35  50 CALM      29.79S                  
BANGOR ME      CLOUDY    53  34  48 N12       29.75F                  
CONCORD NH     CLOUDY    57  30  35 CALM      29.80S                  
MANCHESTER NH  CLOUDY    58  29  33 CALM      29.79S                  
NASHUA NH      CLOUDY    57  32  38 CALM      29.82R                  
PORTSMOUTH NH  CLOUDY    52  33  47 S7        29.82S                  
JAFFREY NH     CLOUDY    55  30  38 VRB7      29.82R                  
KEENE NH       CLOUDY    56  32  40 N5        29.82R                  
BURLINGTON VT  CLOUDY    58  31  35 W8        29.83S                  
MT. WASHINGTON CLOUDY    30  25  80 NW18        N/A  WCI  18          
$$

NYZ052-076-082300-
EASTERN NEW YORK
  
CITY           SKY/WX    TMP DP  RH WIND       PRES   REMARKS
ALBANY         CLOUDY    51  40  65 W16       29.86R                  
NEW YORK CITY  CLOUDY    52  39  61 CALM      29.88R                  
$$
 
ANZALL-082300-
MARINE OBSERVATIONS
  
STATION/POSITION TIME  TEMP    WIND        PRES    VSBY  WAVE
                       AIR SEA DIR/SP/G                  HT/PER
                 (UTC) (F)     (DEG/KT/KT) (MB)    (MI)  (FT/S)
BOSTON BUOY      2140   47 48  190/  6/  8 1010.3S
BUZZARDS BAY     2100          120/  5/  5 1011.9R
NANTUCKET SOUND  2140      52                N/A
MASS BAY-STELLWA 2104   49     220/  4/  6 1009.0S  1 7/8  3/ 6
ISLE OF SHOALS   2100   48     220/  6/  6 1009.2F
S OF BLOCK IS    2126      50                N/A           4/ 7
$$

......................KEY.........................
  SKY/WX - SKY CONDITION/PRESENT WEATHER
  TMP    - TEMPERATURE IN FAHRENHEIT
  DWPT   - DEWPOINT IN FAHRENHEIT
  RH     - RELATIVE HUMIDITY IN PERCENT
  WIND   - DIRECTION AND SPEED IN MPH
  PRES   - MEAN SEA LEVEL PRESSURE IN INCHES OF HG
  WCI    - WIND CHILL INDEX
  VSB    - VISIBILITY IN MILES
  HX     - HEAT INDEX
  TC     - TEMPERATURE IN CELSIUS
  VRB    - VARIABLE WIND DIRECTION
  N/A    - NOT AVAILABLE
  
      

Other recent Regional Weather Roundups

Wed May 12, 4:04am

Wed May 12, 3:04am

Wed May 12, 2:04am

Wed May 12, 1:04am

Wed May 12, 12:05am

Tue May 11, 11:05pm

Tue May 11, 10:04pm

Tue May 11, 9:05pm

Tue May 11, 8:05pm

Tue May 11, 7:04pm

Tue May 11, 6:04pm

Tue May 11, 5:04pm

Tue May 11, 4:05pm

Tue May 11, 3:04pm

Tue May 11, 2:05pm

Tue May 11, 1:04pm

Tue May 11, 12:05pm

Tue May 11, 11:05am

Tue May 11, 10:04am

Tue May 11, 9:04am

Tue May 11, 8:04am

Tue May 11, 7:05am

Tue May 11, 6:04am

Tue May 11, 5:04am

Tue May 11, 4:04am

Tue May 11, 3:04am

Tue May 11, 2:04am

Tue May 11, 1:04am

Tue May 11, 12:04am

Mon May 10, 11:04pm

Mon May 10, 10:04pm

Mon May 10, 9:05pm

Mon May 10, 8:04pm

Mon May 10, 7:05pm

Mon May 10, 6:04pm

Mon May 10, 5:04pm

Mon May 10, 4:04pm

Mon May 10, 3:04pm

Mon May 10, 2:04pm

Mon May 10, 1:04pm

Mon May 10, 12:04pm

Mon May 10, 11:05am

Mon May 10, 10:04am

Mon May 10, 9:04am

Mon May 10, 8:04am

Mon May 10, 7:04am

Mon May 10, 6:04am

Mon May 10, 5:05am

Mon May 10, 4:04am

Mon May 10, 3:04am

Mon May 10, 2:04am

Mon May 10, 1:04am

Mon May 10, 12:04am

Sun May 9, 11:04pm

Sun May 9, 10:04pm

Sun May 9, 9:04pm

Sun May 9, 8:04pm

Sun May 9, 7:05pm

Sun May 9, 6:04pm

Sun May 9, 5:04pm

Sun May 9, 4:04pm

Sun May 9, 3:04pm

Sun May 9, 2:04pm

Sun May 9, 1:05pm

Sun May 9, 12:04pm

Sun May 9, 11:05am

Sun May 9, 10:04am

Sun May 9, 9:04am

Sun May 9, 8:04am

Sun May 9, 7:04am

Sun May 9, 6:04am

Sun May 9, 5:04am

Sun May 9, 4:04am

Sun May 9, 3:04am

Sun May 9, 2:04am

Sun May 9, 1:05am

Sun May 9, 12:04am

Sat May 8, 11:05pm

Sat May 8, 10:04pm

Sat May 8, 9:05pm

Sat May 8, 8:04pm

Sat May 8, 7:04pm

Sat May 8, 5:05pm

Sat May 8, 4:04pm

Sat May 8, 3:05pm

Sat May 8, 2:05pm

Sat May 8, 1:05pm

Sat May 8, 12:04pm

Sat May 8, 11:05am

Sat May 8, 10:04am

Sat May 8, 9:04am

Sat May 8, 8:04am

Sat May 8, 7:04am

Sat May 8, 6:04am

Sat May 8, 5:04am

Sat May 8, 4:04am

Sat May 8, 3:04am

Sat May 8, 2:04am

Sat May 8, 1:05am

Sat May 8, 12:04am

Fri May 7, 11:04pm

Fri May 7, 10:05pm

Fri May 7, 9:04pm

Fri May 7, 8:04pm

Fri May 7, 7:05pm

Fri May 7, 6:04pm

Fri May 7, 5:05pm

Fri May 7, 4:04pm

Fri May 7, 3:04pm

Fri May 7, 2:05pm

Fri May 7, 1:04pm

Fri May 7, 12:04pm

Fri May 7, 11:05am

Fri May 7, 10:04am

Fri May 7, 9:04am

Fri May 7, 8:05am

Fri May 7, 7:04am

Fri May 7, 6:04am

Fri May 7, 5:04am

Fri May 7, 4:04am

Fri May 7, 3:04am

Fri May 7, 2:05am

Fri May 7, 1:04am

Fri May 7, 12:05am

Thu May 6, 11:04pm

Thu May 6, 10:04pm

Thu May 6, 9:05pm

Thu May 6, 8:04pm

Thu May 6, 7:04pm

Thu May 6, 6:04pm

Thu May 6, 5:05pm

Thu May 6, 4:04pm

Thu May 6, 3:04pm

Thu May 6, 2:05pm

Thu May 6, 1:04pm

Thu May 6, 12:04pm

Thu May 6, 11:04am

Thu May 6, 10:04am

Thu May 6, 9:04am

Thu May 6, 8:04am

Thu May 6, 7:04am

Thu May 6, 6:04am

Thu May 6, 5:04am

Thu May 6, 4:04am

Thu May 6, 3:04am

Thu May 6, 2:05am

Thu May 6, 1:04am

Thu May 6, 12:05am

Wed May 5, 11:04pm

Wed May 5, 10:04pm

Wed May 5, 9:05pm

Wed May 5, 8:04pm

Wed May 5, 7:05pm

Wed May 5, 6:04pm

Wed May 5, 5:04pm

Wed May 5, 4:04pm

Wed May 5, 3:04pm

Wed May 5, 2:05pm

Wed May 5, 1:05pm

Wed May 5, 12:04pm

Wed May 5, 11:05am

Wed May 5, 10:04am

Wed May 5, 9:04am

Wed May 5, 8:04am

Wed May 5, 7:04am

Wed May 5, 6:05am

Wed May 5, 5:04am

Meta data:

ID: 0b8b0198-6559-4e77-898a-c04ad80b628a
Link: https://api.weather.gov/products/0b8b0198-6559-4e77-898a-c04ad80b628a